Miscellaneous Local Product
Issued by NWS North Platte, NE

Home | Current Version | Previous Version | Text Only | Print | Product List | Glossary On
Versions: 1 2 3 4 5 6 7 8 9 10 11 12 13 14 15 16 17 18 19 20 21 22 23 24 25 26 27 28 29 30 31 32 33 34 35 36 37 38 39 40 41 42 43 44 45 46 47 48 49 50
919
AXUS43 KLBF 291510
MISLBF


WESTERN AND NORTH CENTRAL NEBRASKA HOURLY WEATHER ROUNDUP
NATIONAL WEATHER SERVICE NORTH PLATTE NE
1000 AM CDT SAT APR 29 2017

NOTE: "FAIR" INDICATES FEW OR NO CLOUDS BELOW 12,000 FEET WITH NO
SIGNIFICANT WEATHER AND/OR OBSTRUCTIONS TO VISIBILITY.

NOTE: STATIONS NOT REPORTING VARIABLES SUCH AS SKY/WEATHER OR
PRESSURE ARE PROVIDED BY RAWS AND APRS NETWORKS AND ARE NOT UNDER
NATIONAL WEATHER SERVICE QUALITY CONTROL.

...OBSERVATIONS IN AND NEAR THE EASTERN PANHANDLE OF NEBRASKA...

CITY           SKY/WX    TMP DP  RH WIND       PRES   REMARKS
PINE RIDGE     CLOUDY    39  29  67 SW3       30.28S
CHADRON        CLOUDY    36  28  73 SW5       30.30R WCI  32
ALLIANCE       CLOUDY    35  29  78 N9        30.24R WCI  28
SIDNEY         CLOUDY    35  27  72 NE13      30.21S WCI  26
CRESCENT LAKE    N/A     37  26  65 NE7         N/A  WCI  31
$$

...OBSERVATIONS IN NORTHERN NEBRASKA AND FAR SOUTHERN SOUTH DAKOTA...

CITY           SKY/WX    TMP DP  RH WIND       PRES   REMARKS
WINNER         FAIR      45  24  43 NE9       30.27F
VALENTINE      CLOUDY    45  18  34 E12       30.26R
THEDFORD       CLOUDY    41  27  56 NE14      30.21R
AINSWORTH      CLOUDY    41  25  52 NE13      30.23R
O`NEILL        CLOUDY    45  26  46 NE12      30.20S
ORD            CLOUDY    42  28  57 NE14      30.15S
BROKEN BOW     CLOUDY    41  27  57 N14G22    30.15R
VALENTINE NWR    N/A     38  24  57 NE9         N/A  WCI  31
BUTTE            N/A     42  26  52 N9G20       N/A
CHAMBERS         N/A     46  28  48 NE3         N/A
EWING            N/A     44  33  65 NE8         N/A
$$

...OBSERVATIONS IN SOUTHWEST NEBRASKA AND FAR NORTHEAST COLORADO...

CITY           SKY/WX    TMP DP  RH WIND       PRES   REMARKS
HOLYOKE        PTSUNNY   37  30  75 N17G23    30.16F WCI  28
IMPERIAL       CLOUDY    37  27  67 NE14      30.16R WCI  28
OGALLALA       CLOUDY    40  26  57 NE12G20   30.19R WCI  33
NORTH PLATTE   CLOUDY    40  27  59 NE16      30.16R WCI  31
MCCOOK         CLOUDY    38  34  85 N14       30.11R WCI  30
LEXINGTON      CLOUDY    41  30  64 NE17G24   30.11S
STAPLETON        N/A     38  28  67 NE5         N/A  WCI  34
GOTHENBURG       N/A     39  26  61 N10         N/A  WCI  32
CALLAWAY         N/A     37  30  75 NE10        N/A  WCI  30
$$

...OBSERVATIONS IN CENTRAL LINCOLN COUNTY AREA...

CITY           SKY/WX    TMP DP  RH WIND       PRES   REMARKS
N.P. AIRPORT   CLOUDY    40  27  59 NE16      30.16R WCI  31
N.P. DOWNTOWN    N/A     38  27  63 NE12G18     N/A  WCI  30
N.P. SOUTHEAST   N/A     39  28  63 NE6G14      N/A  WCI  35
N.P. HILLCREST   N/A     39  28  65 NE16G23     N/A  WCI  30
$$

...SOME OBSERVATIONS FROM AROUND THE REGION...

CITY           SKY/WX    TMP DP  RH WIND       PRES   REMARKS
DENVER         LGT SNOW  30  26  85 N16       30.14F FOG     WCI  19
LIMON          LGT SNOW  29  27  92 NE24      30.11R FOG     WCI  15
ASPEN          CLOUDY    27  14  58 S3        29.98R
LARAMIE        CLOUDY    23  17  78 NE14      30.14F WCI  11
CASPER         CLOUDY    30  27  88 E7        30.26R WCI  23
CHEYENNE       LGT SNOW  27  23  85 N10       30.18S FOG     WCI  17
SCOTTSBLUFF    CLOUDY    35  26  69 N9        30.26S WCI  28
GRAND ISLAND   CLOUDY    41  34  76 NE23G30   30.10S
OMAHA          CLOUDY    45  35  68 N15       30.07F
SIOUX FALLS    CLOUDY    46  30  53 E12       30.25F
PIERRE         PTSUNNY   46  23  40 NE6       30.28F
RAPID CITY     CLOUDY    43  24  47 N6        30.29S
BISMARCK       CLOUDY    42  29  59 CALM      30.32R
KANSAS CITY    RAIN      46  45  96 NE18      29.88R FOG
HILL CITY      CLOUDY    39  37  92 N15G29    30.03R WCI  31
WICHITA        TSTM      45  44  97 NE24G31   29.74F FOG
DODGE CITY     LGT RAIN  39  38  96 N23G30    29.89R FOG     WCI  28
OKLAHOMA CITY  CLOUDY    48  47  96 N25G31    29.65R
DALLAS         CLOUDY    82  71  69 S26G44    29.54S
AMARILLO       LGT SNOW  33  32  96 NW22G32   29.90R FOG     WCI  21
$$




USA.gov is the U.S. government's official web portal to all federal, state and local government web resources and services.